SAUDICOMSAT 1

Satellite information

Favourite Embed

Satellite Type and Status

PAYLOADIN ORBIT

Key statistics

Satellite SAUDICOMSAT 1 at a glance.

Uptime

7783

Days in orbit

Revolutions

≈ 14.6

Per day

Orbit

SSO

Sun Synchronous Orbit

Inclination

98.6

Latest

Satellite identification and parameters

Extended collection of information and parameters for SAUDICOMSAT 1.

Object identification

Identified? True

Debris? False

Object name: SAUDICOMSAT 1

International designator: 2004-025D

Object number (NORAD): 28369

Object ID (CCSDS): 28369

Country: SAUDI ARABIA (SAUD)

Current information (Y/N): Y

RCS size: SMALL

Orbital parameters

Period: 98.957 minutes

Inclination: 98.5777 deg

SMA: 7086.915 km

Apoapsis: 732.295 km

Periapsis: 685.265 km

RAAN: 290.6462 deg

Eccentricy: 0.00331808

Argument of periapsis: 43.9008 deg

Mean anomaly: 316.4816 deg

Mean motion: 14.55180667 rev/day

Mean motion (dot): 0.00000922 rev/day2

B* drag term: 0.00022315133 1/REarth

Two-line elements (TLE)

Creation date: Oct. 19, 2025, 2:20 a.m.

Reference frame: TEME

Reference center: EARTH

Epoch: Oct. 18, 2025, 11:18 p.m. UTC

TLE line 0: 0 SAUDICOMSAT 1

TLE line 1: 1 28369U 04025D 25291.97120357 .00000922 00000-0 22315-3 0 9991

TLE line 2: 2 28369 98.5777 290.6462 0033181 43.9008 316.4816 14.55180667129040

Live tracking on map

Real-time ground track for satellite SAUDICOMSAT 1.

In-orbit conjunctions

There are no conjunctions computed for SAUDICOMSAT 1, at the moment. Check back to stay up to date, as we update our databases every day.

Go to all conjunctions

Associated space launch

AprizeSat, is a constellation of small Low-Earth-Orbit satellites (64 satellites planned) to achieve a global communication system of data transmission and fixed and mobile asset tracking and monitoring (GMPCS).

SAUDICOMSAT 1 was lifted into orbit during the mission ‘Dnepr | Aprizesat-2’, on board a Dnepr space rocket.

The launch took place on June 29, 2004, 6:30 a.m. from 109/95.

For more information about the launch, click the button.

Launch to space Dnepr | Aprizesat-2
Dnepr | Aprizesat-2

Agency: N/A

Status: Launch Successful

Launch date: June 29, 2004, 6:30 a.m. UTC

Rocket: Dnepr

Launch pad: 109/95

Location: Baikonur Cosmodrome, Republic of Kazakhstan

...

Latest news about this satellite

There are no fresh news available about this satellite. Check back as we update our databases every day.


Newsletter sign-up

Weekly statistics, charts and insights to help you stay on top of the space industry.